PD0PJH-13 Weather Reports


time (UTC)temp
C
wind
direction
speed
KPH
gust
KPH
rain 1hr
cm
rain 24hr
cm
rain mn
cm
humidity
%
barometer
mb
20260507074518 13 103 4.8 8.0 0.00 0.20 0.00 80 1014.3
20260507073022 12 105 4.8 8.0 0.00 0.20 0.00 85 1014.3
20260507071506 11 102 3.2 6.4 0.00 0.20 0.00 91 1014.2
20260507070012 10 20 1.6 3.2 0.00 0.20 0.00 93 1014.2
20260507064515 10 20 0.0 0.0 0.00 0.20 0.00 96 1014.3
20260507063020 9 20 0.0 0.0 0.00 0.20 0.00 96 1014.1
20260507061523 8 20 0.0 0.0 0.00 0.20 0.00 96 1013.9
20260507060012 8 20 0.0 0.0 0.00 0.20 0.00 96 1014.0
20260507054511 8 20 0.0 0.0 0.00 0.20 0.00 96 1013.9
20260507053016 7 20 0.0 0.0 0.00 0.20 0.00 96 1013.7
20260507051522 7 20 0.0 0.0 0.00 0.20 0.00 96 1013.6
20260507050039 7 20 0.0 0.0 0.00 0.20 0.00 95 1013.4
20260507044527 7 20 0.0 0.0 0.00 0.20 0.00 95 1013.3
20260507043014 7 20 0.0 0.0 0.00 0.20 0.00 95 1013.3
20260507041504 7 20 0.0 0.0 0.00 0.20 0.00 95 1013.3
20260507040004 7 20 0.0 0.0 0.00 0.20 0.00 95 1013.2
20260507034507 7 20 0.0 0.0 0.00 0.20 0.00 94 1013.2
20260507033009 7 20 0.0 0.0 0.00 0.20 0.00 95 1013.3
20260507031508 8 20 0.0 0.0 0.00 0.20 0.00 95 1013.3
20260507030004 8 20 0.0 0.0 0.00 0.20 0.00 95 1013.2
20260507024506 8 20 0.0 0.0 0.00 0.20 0.00 95 1013.1
20260507023008 8 20 0.0 0.0 0.00 0.20 0.00 94 1013.2
20260507021512 8 20 0.0 0.0 0.00 0.20 0.00 95 1013.2
20260507020013 8 20 0.0 0.0 0.00 0.20 0.00 94 1012.9
20260507014503 8 20 0.0 1.6 0.00 0.20 0.00 94 1012.9
20260507013007 8 20 0.0 0.0 0.00 0.20 0.00 94 1012.9
20260507011510 8 20 0.0 0.0 0.00 0.20 0.00 94 1013.0
20260507010023 8 20 0.0 0.0 0.00 0.20 0.00 94 1013.0
20260507004518 8 20 0.0 0.0 0.00 0.20 0.00 94 1013.0
20260507003004 8 20 0.0 0.0 0.00 0.20 0.00 93 1013.1
20260507001509 9 20 0.0 0.0 0.00 0.20 0.00 94 1013.1
20260507000012 9 20 0.0 0.0 0.00 0.20 0.00 94 1013.0
20260506234520 9 20 0.0 0.0 0.00 0.20 0.00 93 1013.0
20260506233020 9 20 0.0 0.0 0.00 0.20 0.00 93 1013.0
20260506231508 9 20 0.0 0.0 0.00 0.20 0.00 94 1012.9
20260506230010 9 20 0.0 0.0 0.00 0.20 0.00 93 1012.8
20260506224515 9 20 0.0 0.0 0.00 0.20 0.00 93 1012.8
20260506223022 9 20 0.0 0.0 0.00 0.20 0.00 93 1012.7
20260506221524 9 20 0.0 0.0 0.00 0.20 0.00 93 1012.7
20260506220008 9 20 0.0 4.8 0.00 0.20 0.00 93 1012.4
20260506214514 10 20 1.6 6.4 0.00 0.20 0.20 93 1012.4
20260506213019 10 20 1.6 8.0 0.00 0.20 0.20 92 1012.3
20260506211537 10 7 0.0 3.2 0.00 0.20 0.20 93 1012.3
20260506210032 10 7 1.6 3.2 0.00 0.20 0.20 93 1012.3
20260506204515 10 7 1.6 6.4 0.00 0.20 0.20 93 1012.2
20260506203016 10 7 0.0 0.0 0.00 0.20 0.20 94 1012.0
20260506201527 10 7 0.0 0.0 0.00 0.20 0.20 94 1012.1
20260506200029 10 7 0.0 0.0 0.00 0.20 0.20 93 1011.8
20260506194527 10 7 0.0 0.0 0.00 0.20 0.20 93 1011.6
20260506193012 10 7 0.0 0.0 0.00 0.20 0.20 92 1011.4
20260506191519 10 7 0.0 0.0 0.00 0.20 0.20 92 1011.3
20260506190005 10 7 0.0 0.0 0.00 0.20 0.20 91 1011.2
20260506184507 11 7 0.0 0.0 0.00 0.20 0.20 89 1010.9
20260506183010 11 7 0.0 0.0 0.00 0.20 0.20 88 1010.8
20260506181533 11 7 0.0 3.2 0.00 0.20 0.20 88 1010.7
20260506180019 11 7 0.0 3.2 0.00 0.20 0.20 88 1010.6
20260506174504 12 7 0.0 6.4 0.00 0.20 0.20 87 1010.3
20260506173007 12 7 1.6 6.4 0.00 0.23 0.20 86 1010.1
20260506171520 12 359 0.0 4.8 0.03 0.36 0.20 86 1009.9
20260506170018 12 359 1.6 6.4 0.08 0.36 0.20 87 1009.9
20260506164522 12 49 1.6 8.0 0.15 0.36 0.20 87 1009.8
20260506163007 12 356 3.2 8.0 0.15 0.36 0.20 88 1009.9
20260506161510 11 295 0.0 6.4 0.15 0.33 0.18 87 1010.0
20260506160024 11 308 1.6 14.5 0.10 0.28 0.13 85 1010.0
20260506154525 12 241 3.2 12.9 0.05 0.20 0.05 84 1010.0
20260506153030 12 263 3.2 8.0 0.05 0.20 0.05 85 1009.9
20260506151516 12 9 4.8 11.3 0.03 0.18 0.03 85 1009.7
20260506150016 12 344 3.2 12.9 0.03 0.18 0.03 87 1009.5
20260506144519 12 328 4.8 14.5 0.00 0.15 0.00 82 1009.5
20260506143026 13 344 6.4 16.1 0.00 0.15 0.00 80 1009.4
20260506141526 12 185 1.6 8.0 0.00 0.15 0.00 79 1009.1
20260506140016 12 185 1.6 6.4 0.00 0.15 0.00 79 1009.1
20260506134525 13 200 4.8 16.1 0.00 0.15 0.00 74 1009.3
20260506133035 14 259 9.7 20.9 0.00 0.15 0.00 69 1009.3
20260506131523 15 254 11.3 19.3 0.00 0.15 0.00 70 1009.1
20260506130028 15 257 6.4 17.7 0.00 0.15 0.00 73 1009.1
20260506124510 14 219 11.3 19.3 0.00 0.15 0.00 73 1009.3
20260506123017 14 238 11.3 19.3 0.00 0.18 0.00 74 1009.3
20260506121522 14 210 8.0 24.1 0.00 0.28 0.00 77 1009.3
20260506120026 13 192 12.9 22.5 0.00 0.48 0.00 77 1009.3
20260506114528 13 213 14.5 20.9 0.00 0.48 0.00 79 1009.4
20260506113015 13 196 11.3 22.5 0.00 0.48 0.00 79 1009.5
20260506111520 13 223 9.7 20.9 0.00 0.48 0.00 81 1009.5
20260506110026 13 221 12.9 20.9 0.00 0.48 0.00 79 1009.7
20260506104551 12 217 9.7 19.3 0.00 0.48 0.00 80 1009.7
20260506103031 12 219 11.3 19.3 0.00 0.48 0.00 81 1009.7
20260506101518 12 220 12.9 20.9 0.00 0.48 0.00 83 1009.8
20260506100004 12 227 12.9 19.3 0.00 0.48 0.00 84 1009.6
20260506094504 11 222 11.3 22.5 0.00 0.48 0.00 86 1009.6
20260506093010 11 238 6.4 19.3 0.00 0.48 0.00 88 1009.6
20260506091516 11 238 9.7 19.3 0.00 0.48 0.00 88 1009.4
20260506090020 11 232 8.0 16.1 0.00 0.48 0.00 88 1009.3
20260506084506 11 229 12.9 19.3 0.00 0.48 0.00 87 1009.1
20260506083018 11 221 9.7 16.1 0.00 0.48 0.00 86 1009.1
20260506081513 11 236 8.0 14.5 0.00 0.48 0.00 87 1008.9